| time (UTC) | temp F | wind direction | speed MPH | gust MPH | rain 1hr in | rain 24hr in | rain mn in | humidity % | barometer mb |
| 20260505124524 | 43 | 260 | 3.0 | 6.0 | 0.00 | 0.10 | 0.00 | 76 | 1003.3 |
| 20260505123030 | 42 | 252 | 4.0 | 6.0 | 0.00 | 0.10 | 0.00 | 81 | 1003.4 |
| 20260505121521 | 42 | 287 | 4.0 | 8.0 | 0.00 | 0.10 | 0.00 | 83 | 1003.2 |
| 20260505120027 | 42 | 272 | 4.0 | 7.0 | 0.00 | 0.10 | 0.00 | 83 | 1003.0 |
| 20260505114519 | 41 | 268 | 5.0 | 8.0 | 0.00 | 0.10 | 0.00 | 83 | 1002.9 |
| 20260505113028 | 41 | 271 | 5.0 | 8.0 | 0.00 | 0.10 | 0.00 | 85 | 1002.8 |
| 20260505111522 | 41 | 264 | 4.0 | 6.0 | 0.00 | 0.10 | 0.00 | 84 | 1002.8 |
| 20260505101507 | 41 | 250 | 0.0 | 2.0 | 0.00 | 0.10 | 0.00 | 75 | 1001.6 |
| 20260505100004 | 41 | 234 | 0.0 | 0.0 | 0.00 | 0.10 | 0.00 | 75 | 1001.6 |
| 20260505094501 | 42 | 348 | 0.0 | 1.0 | 0.00 | 0.10 | 0.00 | 72 | 1001.3 |
| 20260505093059 | 43 | 17 | 0.0 | 1.0 | 0.00 | 0.10 | 0.00 | 72 | 1001.1 |
| 20260505091556 | 43 | 213 | 0.0 | 3.0 | 0.00 | 0.10 | 0.00 | 70 | 1001.0 |
| 20260505090058 | 44 | 117 | 0.0 | 0.0 | 0.00 | 0.10 | 0.00 | 72 | 1001.0 |
| 20260505084553 | 44 | 134 | 0.0 | 2.0 | 0.00 | 0.10 | 0.00 | 71 | 1000.9 |
| 20260505083101 | 44 | 270 | 0.0 | 3.0 | 0.00 | 0.10 | 0.00 | 70 | 1000.7 |
| 20260505081552 | 45 | 175 | 0.0 | 0.0 | 0.00 | 0.10 | 0.00 | 69 | 1000.7 |
| 20260505080047 | 45 | 227 | 0.0 | 1.0 | 0.00 | 0.10 | 0.00 | 69 | 1000.6 |
| 20260505074546 | 45 | 251 | 0.0 | 3.0 | 0.00 | 0.10 | 0.00 | 69 | 1000.5 |
| 20260505073044 | 45 | 89 | 0.0 | 2.0 | 0.00 | 0.10 | 0.00 | 66 | 1000.4 |
| 20260505071542 | 46 | 94 | 0.0 | 4.0 | 0.00 | 0.10 | 0.00 | 65 | 1000.3 |
| 20260505070048 | 46 | 186 | 0.0 | 1.0 | 0.00 | 0.10 | 0.00 | 70 | 1000.2 |
| 20260505064554 | 46 | 233 | 0.0 | 1.0 | 0.00 | 0.10 | 0.00 | 69 | 1000.3 |
| 20260505063046 | 46 | 284 | 0.0 | 5.0 | 0.00 | 0.10 | 0.00 | 68 | 1000.3 |
| 20260505061542 | 46 | 226 | 0.0 | 0.0 | 0.00 | 0.10 | 0.00 | 71 | 1000.2 |
| 20260505060038 | 46 | 179 | 0.0 | 0.0 | 0.00 | 0.10 | 0.00 | 73 | 1000.4 |
| 20260505054536 | 46 | 240 | 0.0 | 1.0 | 0.00 | 0.10 | 0.00 | 71 | 1000.1 |
| 20260505053033 | 46 | 240 | 0.0 | 1.0 | 0.00 | 0.10 | 0.00 | 73 | 999.9 |
| 20260505051532 | 46 | 257 | 0.0 | 4.0 | 0.00 | 0.10 | 0.00 | 73 | 999.8 |
| 20260505041529 | 46 | 101 | 0.0 | 0.0 | 0.00 | 0.10 | 0.00 | 81 | 998.8 |
| 20260505040016 | 46 | 105 | 0.0 | 2.0 | 0.00 | 0.10 | 0.00 | 86 | 998.6 |
| 20260505034516 | 46 | 103 | 0.0 | 0.0 | 0.00 | 0.10 | 0.10 | 89 | 998.4 |
| 20260505033018 | 46 | 103 | 0.0 | 0.0 | 0.00 | 0.10 | 0.10 | 89 | 998.5 |
| 20260505031515 | 46 | 103 | 0.0 | 0.0 | 0.00 | 0.10 | 0.10 | 89 | 998.0 |
| 20260505030015 | 46 | 93 | 0.0 | 2.0 | 0.00 | 0.10 | 0.10 | 89 | 997.5 |
| 20260505024533 | 46 | 90 | 0.0 | 2.0 | 0.00 | 0.10 | 0.10 | 90 | 997.5 |
| 20260505023014 | 46 | 93 | 0.0 | 2.0 | 0.00 | 0.10 | 0.10 | 90 | 997.6 |
| 20260505021517 | 47 | 101 | 0.0 | 4.0 | 0.00 | 0.10 | 0.10 | 90 | 997.4 |
| 20260505020015 | 47 | 105 | 0.0 | 3.0 | 0.00 | 0.10 | 0.10 | 90 | 997.3 |
| 20260505014512 | 47 | 97 | 0.0 | 3.0 | 0.00 | 0.11 | 0.10 | 90 | 997.2 |
| 20260505013019 | 48 | 99 | 0.0 | 0.0 | 0.01 | 0.11 | 0.10 | 90 | 996.9 |
| 20260505011511 | 48 | 99 | 0.0 | 1.0 | 0.02 | 0.11 | 0.10 | 90 | 996.6 |
| 20260505010011 | 48 | 103 | 0.0 | 1.0 | 0.03 | 0.11 | 0.10 | 89 | 996.4 |
| 20260505004513 | 49 | 105 | 0.0 | 4.0 | 0.04 | 0.11 | 0.10 | 89 | 995.6 |
| 20260505003014 | 50 | 102 | 0.0 | 2.0 | 0.07 | 0.10 | 0.09 | 88 | 995.8 |
| 20260505001514 | 51 | 266 | 0.0 | 3.0 | 0.07 | 0.09 | 0.08 | 86 | 996.3 |
| 20260505000025 | 51 | 114 | 0.0 | 0.0 | 0.07 | 0.08 | 0.07 | 86 | 995.7 |
| 20260504234509 | 53 | 237 | 0.0 | 0.0 | 0.06 | 0.20 | 0.06 | 83 | 995.3 |
| 20260504233010 | 55 | 242 | 0.0 | 3.0 | 0.02 | 0.16 | 0.02 | 75 | 995.1 |
| 20260504231521 | 59 | 248 | 0.0 | 2.0 | 0.01 | 0.15 | 0.01 | 66 | 994.7 |
| 20260504230006 | 65 | 281 | 1.0 | 23.0 | 0.00 | 0.14 | 0.00 | 51 | 993.6 |
| 20260504224506 | 66 | 228 | 19.0 | 33.0 | 0.00 | 0.14 | 0.00 | 49 | 992.6 |
| 20260504223005 | 66 | 247 | 20.0 | 29.0 | 0.00 | 0.14 | 0.00 | 49 | 992.3 |
| 20260504221505 | 67 | 236 | 20.0 | 28.0 | 0.00 | 0.14 | 0.00 | 47 | 992.3 |
| 20260504220009 | 67 | 271 | 18.0 | 29.0 | 0.00 | 0.14 | 0.00 | 47 | 991.8 |
| 20260504214502 | 68 | 225 | 15.0 | 29.0 | 0.00 | 0.14 | 0.00 | 46 | 991.7 |
| 20260504213004 | 68 | 238 | 19.0 | 28.0 | 0.00 | 0.14 | 0.00 | 42 | 991.7 |
| 20260504211600 | 69 | 264 | 21.0 | 32.0 | 0.00 | 0.14 | 0.00 | 42 | 991.8 |
| 20260504210109 | 68 | 246 | 19.0 | 26.0 | 0.00 | 0.14 | 0.00 | 44 | 991.9 |
| 20260504204602 | 67 | 252 | 17.0 | 32.0 | 0.00 | 0.14 | 0.00 | 44 | 992.0 |
| 20260504203055 | 67 | 255 | 20.0 | 30.0 | 0.00 | 0.14 | 0.00 | 43 | 992.0 |
| 20260504201555 | 67 | 243 | 19.0 | 29.0 | 0.00 | 0.14 | 0.00 | 45 | 992.0 |
| 20260504200059 | 66 | 245 | 15.0 | 27.0 | 0.00 | 0.14 | 0.00 | 47 | 992.2 |
| 20260504194607 | 67 | 250 | 21.0 | 27.0 | 0.00 | 0.14 | 0.00 | 43 | 992.3 |
| 20260504193053 | 68 | 248 | 20.0 | 32.0 | 0.00 | 0.14 | 0.00 | 40 | 992.4 |
| 20260504191551 | 67 | 248 | 20.0 | 32.0 | 0.00 | 0.14 | 0.00 | 41 | 992.5 |
| 20260504190114 | 68 | 260 | 20.0 | 36.0 | 0.00 | 0.14 | 0.00 | 39 | 992.3 |
| 20260504184556 | 68 | 227 | 24.0 | 46.0 | 0.00 | 0.14 | 0.00 | 40 | 992.3 |
| 20260504183049 | 68 | 222 | 26.0 | 36.0 | 0.00 | 0.14 | 0.00 | 39 | 992.2 |
| 20260504181550 | 69 | 246 | 22.0 | 35.0 | 0.00 | 0.14 | 0.00 | 37 | 992.1 |
| 20260504180118 | 69 | 243 | 23.0 | 32.0 | 0.00 | 0.14 | 0.00 | 37 | 992.1 |
| 20260504174542 | 67 | 221 | 26.0 | 38.0 | 0.00 | 0.14 | 0.00 | 40 | 992.6 |
| 20260504173051 | 67 | 243 | 28.0 | 37.0 | 0.00 | 0.14 | 0.00 | 39 | 992.8 |
| 20260504171537 | 67 | 238 | 21.0 | 34.0 | 0.00 | 0.14 | 0.00 | 39 | 993.2 |
| 20260504140122 | 58 | 222 | 1.0 | 8.0 | 0.00 | 0.14 | 0.00 | 62 | 996.9 |